Weather History for Window Rock, AZ

Change the Weather History Date:

Tuesday, November 20, 2012

  Actual Average Record
Temperature  
Mean Temperature 38 °F -  
Max Temperature 60 °F 49 °F 68 °F (1949)
Min Temperature 17 °F 20 °F 5 °F (1964)
Degree Days  
Heating Degree Days 26    
Moisture  
Dew Point 10 °F    
Average Humidity 47    
Maximum Humidity 81    
Minimum Humidity 6    
Precipitation  
Precipitation 0.00 in - - ()
Sea Level Pressure  
Sea Level Pressure 30.28 in    
Wind  
Wind Speed 1 mph (SSE)    
Max Wind Speed 9 mph    
Max Gust Speed -    
Visibility 10 miles    
Events      
Averages and records for this station are not official NWS values.
T = Trace of Precipitation, MM = Missing Value Source: NWS Daily Summary

Daily Weather History Graph

Daily Weather History Graph

Search for Another Location

Airport:

Trip Planner

Search our weather history database for the weather conditions in past years. The results will help you decide how hot, cold, wet, or windy it might be!

Date:

Astronomy

Nov. 20, 2012 Rise Set
Actual Time 6:57 AM MST 5:06 PM MST
Civil Twilight 6:30 AM MST 5:33 PM MST
Nautical Twilight 5:58 AM MST 6:04 PM MST
Astronomical Twilight 5:28 AM MST 6:35 PM MST
Moon 12:40 PM MST (11/20) No Moon Set
Length of Visible Light 11h 03m
Length of Day
10h 08m
First Quarter, 52% of the Moon is Illuminated
Nov 20
First Quarter
Nov 28
Full
Dec 6
Last Quarter
Dec 13
New
Dec 19
First Quarter

Hourly Weather History & Observations

Time (MST) Temp. Windchill Dew Point Humidity Pressure Visibility Wind Dir Wind Speed Gust Speed Precip Events Conditions
12:53 AM 19.9 °F - 12.9 °F 74% 30.32 in 10.0 mi Calm Calm - N/A   Clear
1:53 AM 19.9 °F - 14.0 °F 78% 30.30 in 10.0 mi Calm Calm - N/A   Clear
2:53 AM 19.0 °F - 12.9 °F 77% 30.31 in 10.0 mi Calm Calm - N/A   Clear
3:53 AM 17.1 °F - 12.0 °F 81% 30.31 in 10.0 mi Calm Calm - N/A   Clear
4:53 AM 17.1 °F - 12.0 °F 81% 30.33 in 10.0 mi Calm Calm - N/A   Clear
5:53 AM 17.1 °F - 12.0 °F 81% 30.37 in 10.0 mi Calm Calm - N/A   Clear
6:53 AM 17.1 °F - 12.0 °F 81% 30.40 in 10.0 mi Calm Calm - N/A   Clear
7:53 AM 21.0 °F - 15.1 °F 78% 30.43 in 10.0 mi Calm Calm - N/A   Clear
8:53 AM 30.9 °F - 17.1 °F 57% 30.40 in 10.0 mi Calm Calm - N/A   Clear
9:53 AM 41.0 °F - 18.0 °F 40% 30.34 in 10.0 mi Calm Calm - N/A   Clear
10:53 AM 48.9 °F - 19.0 °F 31% 30.32 in 10.0 mi Variable 3.5 mph - N/A   Clear
11:53 AM 54.0 °F - 15.1 °F 22% 30.26 in 10.0 mi Variable 4.6 mph - N/A   Clear
12:53 PM 57.0 °F - 10.0 °F 15% 30.22 in 10.0 mi Variable 3.5 mph - N/A   Clear
1:53 PM 59.0 °F - 1.0 °F 10% 30.18 in 10.0 mi Calm Calm - N/A   Clear
2:53 PM 59.0 °F - -2.9 °F 8% 30.17 in 10.0 mi Calm Calm - N/A   Clear
3:53 PM 60.1 °F - -7.1 °F 6% 30.17 in 10.0 mi Calm Calm - N/A   Clear
4:53 PM 55.9 °F - -0.9 °F 10% 30.19 in 10.0 mi Calm Calm - N/A   Clear
5:53 PM 48.0 °F - 8.1 °F 20% 30.22 in 10.0 mi East 9.2 mph - N/A   Clear
6:53 PM 34.0 °F 29.8 °F 8.1 °F 34% 30.30 in 10.0 mi SSW 4.6 mph - N/A   Clear
7:53 PM 30.9 °F - 8.1 °F 38% 30.31 in 10.0 mi Calm Calm - N/A   Clear
8:53 PM 28.9 °F - 9.0 °F 43% 30.28 in 10.0 mi Calm Calm - N/A   Clear
9:53 PM 26.1 °F - 9.0 °F 49% 30.25 in 10.0 mi Calm Calm - N/A   Clear
10:53 PM 26.1 °F - 10.0 °F 51% 30.21 in 10.0 mi Calm Calm - N/A   Clear
11:53 PM 23.0 °F - 10.0 °F 58% 30.20 in 10.0 mi Calm Calm - N/A   Clear